| time (UTC) | temp F | wind direction | speed MPH | gust MPH | rain 1hr in | rain 24hr in | rain mn in | humidity % | barometer mb |
| 20260503233515 | 75 | 310 | 7.0 | 12.0 | 0.00 | 0.00 | 0.00 | 54 | 1009.9 |
| 20260503232515 | 76 | 324 | 5.0 | 9.0 | 0.00 | 0.00 | 0.00 | 54 | 1009.9 |
| 20260503231515 | 76 | 334 | 3.0 | 8.0 | 0.00 | 0.00 | 0.00 | 54 | 1010.0 |
| 20260503230516 | 77 | 315 | 4.0 | 8.0 | 0.00 | 0.00 | 0.00 | 53 | 1010.2 |
| 20260503225515 | 76 | 323 | 5.0 | 9.0 | 0.00 | 0.00 | 0.00 | 54 | 1010.4 |
| 20260503224535 | 75 | 314 | 6.0 | 11.0 | 0.00 | 0.00 | 0.00 | 54 | 1010.6 |
| 20260503223515 | 74 | 316 | 6.0 | 12.0 | 0.00 | 0.00 | 0.00 | 54 | 1010.8 |
| 20260503222535 | 74 | 317 | 7.0 | 12.0 | 0.00 | 0.00 | 0.00 | 55 | 1010.9 |
| 20260503221515 | 74 | 331 | 8.0 | 13.0 | 0.00 | 0.00 | 0.00 | 55 | 1011.0 |
| 20260503220515 | 74 | 333 | 8.0 | 13.0 | 0.00 | 0.00 | 0.00 | 55 | 1011.2 |
| 20260503215516 | 74 | 326 | 7.0 | 13.0 | 0.00 | 0.00 | 0.00 | 56 | 1011.2 |
| 20260503214555 | 73 | 315 | 8.0 | 13.0 | 0.00 | 0.00 | 0.00 | 59 | 1011.3 |
| 20260503213635 | 72 | 321 | 9.0 | 13.0 | 0.00 | 0.00 | 0.00 | 60 | 1011.4 |
| 20260503212514 | 71 | 327 | 8.0 | 12.0 | 0.00 | 0.00 | 0.00 | 61 | 1011.4 |
| 20260503211535 | 72 | 315 | 9.0 | 12.0 | 0.00 | 0.00 | 0.00 | 59 | 1011.5 |
| 20260503210555 | 73 | 321 | 8.0 | 11.0 | 0.00 | 0.00 | 0.00 | 56 | 1011.5 |
| 20260503205515 | 72 | 324 | 7.0 | 12.0 | 0.00 | 0.00 | 0.00 | 57 | 1011.5 |
| 20260503204514 | 73 | 321 | 7.0 | 13.0 | 0.00 | 0.00 | 0.00 | 56 | 1011.7 |
| 20260503203515 | 72 | 332 | 8.0 | 13.0 | 0.00 | 0.00 | 0.00 | 57 | 1011.9 |
| 20260503202515 | 72 | 319 | 7.0 | 13.0 | 0.00 | 0.00 | 0.00 | 58 | 1011.9 |
| 20260503201555 | 71 | 338 | 8.0 | 13.0 | 0.00 | 0.00 | 0.00 | 58 | 1012.1 |
| 20260503200515 | 72 | 320 | 7.0 | 12.0 | 0.00 | 0.00 | 0.00 | 57 | 1012.2 |
| 20260503195515 | 71 | 338 | 9.0 | 15.0 | 0.00 | 0.00 | 0.00 | 59 | 1012.4 |
| 20260503194515 | 72 | 331 | 6.0 | 10.0 | 0.00 | 0.00 | 0.00 | 59 | 1012.5 |
| 20260503193516 | 72 | 313 | 7.0 | 11.0 | 0.00 | 0.00 | 0.00 | 60 | 1012.6 |
| 20260503192515 | 72 | 331 | 7.0 | 12.0 | 0.00 | 0.00 | 0.00 | 60 | 1012.8 |
| 20260503191516 | 72 | 326 | 6.0 | 11.0 | 0.00 | 0.00 | 0.00 | 60 | 1012.9 |
| 20260503190516 | 71 | 331 | 6.0 | 11.0 | 0.00 | 0.00 | 0.00 | 63 | 1013.0 |
| 20260503185515 | 70 | 310 | 8.0 | 11.0 | 0.00 | 0.00 | 0.00 | 64 | 1013.1 |
| 20260503184515 | 70 | 313 | 5.0 | 10.0 | 0.00 | 0.00 | 0.00 | 64 | 1013.2 |
| 20260503183535 | 69 | 318 | 6.0 | 10.0 | 0.00 | 0.00 | 0.00 | 65 | 1013.1 |
| 20260503182516 | 68 | 288 | 6.0 | 9.0 | 0.00 | 0.00 | 0.00 | 65 | 1013.3 |
| 20260503181536 | 69 | 282 | 5.0 | 9.0 | 0.00 | 0.00 | 0.00 | 65 | 1013.4 |
| 20260503180515 | 69 | 277 | 4.0 | 9.0 | 0.00 | 0.00 | 0.00 | 66 | 1013.4 |
| 20260503175515 | 68 | 264 | 4.0 | 9.0 | 0.00 | 0.00 | 0.00 | 67 | 1013.5 |
| 20260503174515 | 67 | 283 | 6.0 | 10.0 | 0.00 | 0.00 | 0.00 | 68 | 1013.5 |
| 20260503173515 | 67 | 290 | 6.0 | 11.0 | 0.00 | 0.00 | 0.00 | 68 | 1013.5 |
| 20260503172514 | 68 | 317 | 5.0 | 12.0 | 0.00 | 0.00 | 0.00 | 67 | 1013.6 |
| 20260503171515 | 67 | 310 | 5.0 | 11.0 | 0.00 | 0.00 | 0.00 | 68 | 1013.6 |
| 20260503170535 | 65 | 312 | 7.0 | 12.0 | 0.00 | 0.00 | 0.00 | 70 | 1013.6 |
| 20260503150516 | 62 | 305 | 4.0 | 7.0 | 0.00 | 0.00 | 0.00 | 72 | 1014.0 |
| 20260503130515 | 54 | 338 | 2.0 | 4.0 | 0.00 | 0.00 | 0.00 | 81 | 1013.6 |
| 20260503110515 | 56 | 285 | 1.0 | 2.0 | 0.00 | 0.00 | 0.00 | 79 | 1013.9 |
| 20260503081515 | 59 | 258 | 1.0 | 1.0 | 0.00 | 0.00 | 0.00 | 72 | 1013.9 |
| 20260503080515 | 59 | 264 | 1.0 | 2.0 | 0.00 | 0.00 | 0.00 | 72 | 1013.9 |
| 20260503072515 | 60 | 314 | 1.0 | 2.0 | 0.00 | 0.00 | 0.00 | 70 | 1013.8 |
| 20260503071516 | 60 | 275 | 1.0 | 2.0 | 0.00 | 0.00 | 0.00 | 70 | 1013.8 |
| 20260503070515 | 61 | 251 | 1.0 | 2.0 | 0.00 | 0.00 | 0.00 | 70 | 1013.8 |
| 20260503054515 | 63 | 190 | 0.0 | 1.0 | 0.00 | 0.00 | 0.00 | 66 | 1013.6 |
| 20260503053515 | 64 | 247 | 1.0 | 1.0 | 0.00 | 0.00 | 0.00 | 66 | 1013.6 |
| 20260503052615 | 64 | 235 | 1.0 | 2.0 | 0.00 | 0.00 | 0.00 | 66 | 1013.7 |
| 20260503051515 | 64 | 280 | 1.0 | 2.0 | 0.00 | 0.00 | 0.00 | 66 | 1013.6 |
| 20260503050515 | 64 | 356 | 0.0 | 1.0 | 0.00 | 0.00 | 0.00 | 65 | 1013.6 |
| 20260503045515 | 64 | 163 | 0.0 | 2.0 | 0.00 | 0.00 | 0.00 | 64 | 1013.6 |
| 20260503044555 | 65 | 225 | 1.0 | 2.0 | 0.00 | 0.00 | 0.00 | 63 | 1013.5 |
| 20260503043535 | 66 | 227 | 1.0 | 2.0 | 0.00 | 0.00 | 0.00 | 63 | 1013.3 |
| 20260503042535 | 67 | 227 | 1.0 | 3.0 | 0.00 | 0.00 | 0.00 | 62 | 1013.2 |
| 20260503041515 | 68 | 199 | 1.0 | 5.0 | 0.00 | 0.00 | 0.00 | 60 | 1013.1 |
| 20260503040515 | 68 | 308 | 3.0 | 5.0 | 0.00 | 0.00 | 0.00 | 58 | 1012.9 |
| 20260503035515 | 68 | 330 | 2.0 | 5.0 | 0.00 | 0.00 | 0.00 | 59 | 1012.7 |
| 20260503034515 | 68 | 313 | 2.0 | 4.0 | 0.00 | 0.00 | 0.00 | 60 | 1012.7 |
| 20260503033515 | 67 | 328 | 2.0 | 5.0 | 0.00 | 0.00 | 0.00 | 61 | 1012.7 |
| 20260503032516 | 67 | 317 | 3.0 | 7.0 | 0.00 | 0.00 | 0.00 | 62 | 1012.6 |
| 20260503031515 | 67 | 313 | 4.0 | 7.0 | 0.00 | 0.00 | 0.00 | 62 | 1012.5 |
| 20260503030514 | 68 | 311 | 5.0 | 7.0 | 0.00 | 0.00 | 0.00 | 62 | 1012.5 |
| 20260503025535 | 68 | 308 | 4.0 | 7.0 | 0.00 | 0.00 | 0.00 | 61 | 1012.4 |
| 20260503024514 | 69 | 293 | 4.0 | 9.0 | 0.00 | 0.00 | 0.00 | 61 | 1012.4 |
| 20260503023535 | 69 | 302 | 3.0 | 9.0 | 0.00 | 0.00 | 0.00 | 61 | 1012.5 |
| 20260503022515 | 69 | 302 | 4.0 | 8.0 | 0.00 | 0.00 | 0.00 | 60 | 1012.4 |
| 20260503021536 | 70 | 308 | 4.0 | 8.0 | 0.00 | 0.00 | 0.00 | 60 | 1012.3 |
| 20260503020515 | 70 | 300 | 5.0 | 11.0 | 0.00 | 0.00 | 0.00 | 60 | 1012.4 |
| 20260503015515 | 70 | 301 | 6.0 | 12.0 | 0.00 | 0.00 | 0.00 | 61 | 1012.4 |
| 20260503014515 | 70 | 318 | 7.0 | 12.0 | 0.00 | 0.00 | 0.00 | 61 | 1012.3 |
| 20260503013515 | 70 | 316 | 6.0 | 13.0 | 0.00 | 0.00 | 0.00 | 60 | 1012.4 |
| 20260503012515 | 70 | 317 | 8.0 | 14.0 | 0.00 | 0.00 | 0.00 | 60 | 1012.5 |
| 20260503011515 | 70 | 322 | 7.0 | 14.0 | 0.00 | 0.00 | 0.00 | 59 | 1012.4 |
| 20260503010515 | 70 | 318 | 7.0 | 13.0 | 0.00 | 0.00 | 0.00 | 59 | 1012.4 |
| 20260503005515 | 70 | 321 | 8.0 | 13.0 | 0.00 | 0.00 | 0.00 | 58 | 1012.5 |
| 20260503004515 | 70 | 331 | 7.0 | 13.0 | 0.00 | 0.00 | 0.00 | 58 | 1012.7 |
| 20260503003515 | 70 | 326 | 7.0 | 14.0 | 0.00 | 0.00 | 0.00 | 58 | 1012.7 |
| 20260503002515 | 70 | 325 | 7.0 | 14.0 | 0.00 | 0.00 | 0.00 | 59 | 1012.6 |
| 20260503001515 | 70 | 319 | 6.0 | 13.0 | 0.00 | 0.00 | 0.00 | 59 | 1012.7 |
| 20260503000515 | 71 | 312 | 5.0 | 15.0 | 0.00 | 0.00 | 0.00 | 58 | 1012.8 |
| 20260502235515 | 71 | 316 | 4.0 | 11.0 | 0.00 | 0.00 | 0.00 | 59 | 1012.8 |
| 20260502234515 | 70 | 309 | 5.0 | 12.0 | 0.00 | 0.00 | 0.00 | 61 | 1013.1 |